Weather History for Alamosa, CO

Change the Weather History Date:

Friday, March 7, 2014

  Actual Average Record
Temperature  
Mean Temperature 38 °F 31 °F  
Max Temperature 54 °F 47 °F 63 °F (1972)
Min Temperature 22 °F 14 °F -12 °F (1939)
Degree Days  
Heating Degree Days 27 34  
Month to date heating degree days 194 247  
Since 1 July heating degree days 6762 6576  
Cooling Degree Days 0 0  
Month to date cooling degree days 0 0  
Year to date cooling degree days 0 0  
Moisture  
Dew Point 25 °F    
Average Humidity 64    
Maximum Humidity 100    
Minimum Humidity 27    
Precipitation  
Precipitation 0.19 in 0.02 in 0.39 in (2001)
Month to date precipitation 0.40 0.10  
Year to date precipitation 0.52 0.62  
Snow  
Snow 1.20 in 0.10 in 1.50 in (1942)
Month to date snowfall 3.2 1.0  
Since 1 July snowfall 31.3 19.1  
Snow Depth 0.00 in    
Sea Level Pressure  
Sea Level Pressure 29.91 in    
Wind  
Wind Speed 10 mph (WNW)    
Max Wind Speed 30 mph    
Max Gust Speed 39 mph    
Visibility 6 miles    
Events Fog , Snow , Thunderstorm    
T = Trace of Precipitation, MM = Missing Value Source: NWS Daily Summary

Daily Weather History Graph

Daily Weather History Graph

Search for Another Location

Airport:

Trip Planner

Search our weather history database for the weather conditions in past years. The results will help you decide how hot, cold, wet, or windy it might be!

Date:

Astronomy

Mar. 07, 2014 Rise Set
Actual Time 6:26 AM MST 6:03 PM MST
Civil Twilight 6:00 AM MST 6:29 PM MST
Nautical Twilight 5:29 AM MST 6:59 PM MST
Astronomical Twilight 4:59 AM MST 7:29 PM MST
Moon 10:28 AM MST (3/7) 12:03 AM MST (3/7)
Length of Visible Light 12h 29m
Length of Day
11h 37m
Waxing Crescent, 42% of the Moon is Illuminated
Mar 7
Waxing Crescent
Mar 8
First Quarter
Mar 16
Full
Mar 23
Last Quarter
Mar 30
New

Hourly Weather History & Observations

Time (MST) Temp. Windchill Dew Point Humidity Pressure Visibility Wind Dir Wind Speed Gust Speed Precip Events Conditions
12:52 AM 39.9 °F 35.1 °F 19.9 °F 45% 29.80 in 10.0 mi NNW 6.9 mph - N/A   Clear
1:52 AM 37.0 °F 31.6 °F 19.9 °F 50% 29.80 in 10.0 mi NNE 6.9 mph - N/A   Clear
2:52 AM 33.1 °F 30.0 °F 19.9 °F 59% 29.81 in 10.0 mi NE 3.5 mph - N/A   Clear
3:52 AM 27.0 °F 20.5 °F 21.0 °F 78% 29.82 in 10.0 mi SSW 5.8 mph - N/A   Clear
4:52 AM 26.1 °F 17.6 °F 19.9 °F 78% 29.84 in 10.0 mi West 8.1 mph - N/A   Clear
5:52 AM 26.1 °F 21.9 °F 21.0 °F 81% 29.84 in 10.0 mi NW 3.5 mph - N/A   Clear
6:52 AM 23.0 °F 18.4 °F 19.0 °F 85% 29.89 in 10.0 mi East 3.5 mph - N/A   Clear
7:52 AM 33.1 °F 27.7 °F 24.1 °F 70% 29.84 in 10.0 mi ESE 5.8 mph - N/A   Clear
8:52 AM 37.9 °F 33.5 °F 23.0 °F 55% 29.82 in 10.0 mi ESE 5.8 mph - N/A   Overcast
9:52 AM 43.0 °F 38.8 °F 23.0 °F 45% 29.79 in 10.0 mi SSE 6.9 mph - N/A   Overcast
10:52 AM 46.0 °F 43.9 °F 23.0 °F 40% 29.75 in 10.0 mi SSE 4.6 mph - N/A   Overcast
11:52 AM 50.0 °F - 23.0 °F 35% 29.70 in 10.0 mi South 18.4 mph 24.2 mph N/A   Overcast
12:52 PM 50.0 °F - 23.0 °F 35% 29.68 in 10.0 mi SW 19.6 mph 29.9 mph N/A   Overcast
12:59 PM 48.9 °F - 23.0 °F 36% 29.81 in 10.0 mi SW 23.0 mph 31.1 mph N/A   Overcast
1:52 PM 48.9 °F - 19.9 °F 32% 29.67 in 9.0 mi SW 26.5 mph 39.1 mph N/A   Mostly Cloudy
2:52 PM 50.0 °F - 17.1 °F 27% 29.68 in 10.0 mi WSW 20.7 mph 27.6 mph N/A   Clear
3:52 PM 50.0 °F - 21.9 °F 33% 29.77 in 10.0 mi West 13.8 mph 28.8 mph N/A   Partly Cloudy
3:56 PM 46.9 °F - 24.1 °F 41% 29.85 in 10.0 mi NW 24.2 mph 31.1 mph N/A Thunderstorm Scattered Clouds
4:07 PM 39.9 °F 28.8 °F 27.0 °F 60% 29.85 in 10.0 mi NW 27.6 mph 34.5 mph N/A Thunderstorm Mostly Cloudy
4:34 PM 37.9 °F 27.3 °F 27.0 °F 65% 29.88 in 10.0 mi NW 21.9 mph 31.1 mph N/A   Overcast
4:52 PM 36.0 °F 26.3 °F 28.9 °F 76% 29.90 in 2.0 mi WNW 16.1 mph - 0.00 in Snow Light Snow
5:02 PM 36.0 °F 28.0 °F 28.9 °F 76% 29.90 in 9.0 mi WNW 11.5 mph - 0.01 in   Overcast
5:52 PM 37.0 °F 29.3 °F 28.9 °F 73% 29.91 in 10.0 mi North 11.5 mph - 0.01 in   Overcast
6:52 PM 33.1 °F 27.7 °F 30.0 °F 89% 29.98 in 10.0 mi East 5.8 mph - N/A   Overcast
7:52 PM 34.0 °F 27.2 °F 28.0 °F 79% 29.95 in 8.0 mi WNW 8.1 mph - 0.00 in Snow Light Snow
8:16 PM 33.1 °F 23.9 °F 28.9 °F 85% 29.98 in 3.0 mi NW 12.7 mph - 0.00 in Snow Light Snow
8:20 PM 32.0 °F 22.1 °F 28.9 °F 88% 29.98 in 1.5 mi NW 13.8 mph 20.7 mph 0.00 in Snow Light Snow
8:24 PM 32.0 °F 20.8 °F 30.0 °F 92% 29.98 in 1.0 mi NW 17.3 mph 24.2 mph 0.01 in Snow Light Snow
8:32 PM 30.9 °F 19.1 °F 30.0 °F 96% 29.97 in 0.8 mi NW 18.4 mph 24.2 mph 0.01 in Snow Light Snow
8:43 PM 30.9 °F 23.5 °F 30.0 °F 96% 29.97 in 1.0 mi NNW 8.1 mph 25.3 mph 0.03 in Snow Light Snow
8:52 PM 30.0 °F 16.6 °F 28.9 °F 96% 29.97 in 0.5 mi ESE 23.0 mph 28.8 mph 0.03 in Fog , Snow Snow
9:07 PM 28.9 °F 17.7 °F 27.0 °F 92% 30.00 in 1.0 mi SE 15.0 mph - 0.05 in Snow Light Snow
9:11 PM 30.0 °F 20.5 °F 27.0 °F 88% 30.01 in 2.0 mi SE 11.5 mph - 0.05 in Snow Light Snow
9:14 PM 30.0 °F 21.1 °F 26.1 °F 85% 30.01 in 5.0 mi SE 10.4 mph - 0.05 in Snow Light Snow
9:36 PM 30.0 °F 20.5 °F 27.0 °F 88% 30.03 in 1.8 mi NW 11.5 mph - 0.05 in Snow Light Snow
9:42 PM 28.9 °F 19.2 °F 28.0 °F 96% 30.04 in 0.5 mi NW 11.5 mph - 0.06 in Fog , Snow Snow
9:52 PM 28.9 °F 18.6 °F 28.0 °F 96% 30.00 in 0.5 mi NW 12.7 mph - 0.09 in Fog , Snow Snow
10:05 PM 28.9 °F 19.8 °F 26.1 °F 89% 30.04 in 2.0 mi North 10.4 mph - 0.00 in Snow Light Snow
10:15 PM 30.0 °F 19.5 °F 25.0 °F 82% 30.05 in 5.0 mi NNE 13.8 mph - 0.00 in Snow Light Snow
10:29 PM 28.0 °F 19.3 °F 24.1 °F 85% 30.06 in 1.8 mi NE 9.2 mph - 0.00 in Snow Light Snow
10:39 PM 28.0 °F 21.7 °F 26.1 °F 92% 30.06 in 0.8 mi East 5.8 mph - 0.01 in Snow Light Snow
10:52 PM 27.0 °F 20.5 °F 26.1 °F 96% 30.01 in 0.5 mi SE 5.8 mph - 0.03 in Fog , Snow Snow
11:21 PM 27.0 °F 19.5 °F 25.0 °F 92% 30.05 in 1.0 mi SW 6.9 mph - 0.03 in Snow Light Snow
11:28 PM 27.0 °F 21.6 °F 25.0 °F 92% 30.06 in 2.0 mi SW 4.6 mph - 0.03 in Snow Light Snow
11:33 PM 27.0 °F 19.5 °F 25.0 °F 92% 30.06 in 5.0 mi SW 6.9 mph - 0.03 in Snow Light Snow
11:52 PM 26.1 °F 20.5 °F 25.0 °F 96% 30.01 in 10.0 mi SW 4.6 mph - 0.03 in   Overcast